[[{"header":{"parameterUnit":"m.s-1","parameterCategory":1,"la1":30.2991,"la2":30.254,"lo1":-89.0895,"lo2":-89.0444,"dy":0.0017,"dx":0.0017,"nx":28,"ny":28,"refTime":"2025-11-17T03:00:00:Z","depth":0,"parameterNumber":2,"parameterNumberName":"U-component_of_WINDS"},"data":[0,0,0,0,0,0,0,0,0,0,0,0,0,0,0,0,0,0,0,0,0,0,0,0,0,0,0,0,0,0,0,0,0,0,0,0,0,0,0,0,0,0,0,0,0,0,0,0,0,0,0,0,0,0,0,0,0,0,1.5362,1.5363,0,1.5464,1.5465,1.5466,1.5471,1.547,1.5469,1.5468,1.5573,1.5577,1.5581,0,0,0,0,0,0,0,0,0,0,0,0,0,1.5172,1.5176,1.5362,1.5363,1.5365,1.5464,1.5465,1.5467,1.5472,1.547,1.5469,1.5467,1.5572,1.5576,1.5581,0,0,0,0,0,0,0,0,0,0,0,0,0,1.5263,1.5177,1.5362,1.5379,1.5382,1.5464,1.5465,1.5467,1.5472,1.547,1.5468,1.5467,1.557,1.5576,1.5582,1.5654,0,0,1.56,1.5602,0,0,0,0,0,0,0,0,1.5257,1.527,1.5375,1.5378,1.5381,1.5453,1.5437,1.553,1.5472,1.5438,1.5468,1.5466,1.5535,1.5543,1.5566,1.5659,1.5663,1.56,1.5604,1.5606,1.5608,0,0,0,0,0,0,0,1.5251,1.5265,1.5403,1.5377,1.538,1.5382,1.5393,1.5455,1.5495,1.544,1.5441,1.5453,1.5536,1.5561,1.5569,1.5665,1.56,1.5605,1.5609,1.5611,1.5822,1.5824,0,0,0,0,0,0,1.5241,1.526,1.5399,1.5406,1.5313,1.5387,1.5399,1.5432,1.5494,1.5502,1.5454,1.5453,1.5552,1.5562,1.5573,1.5661,1.5606,1.5612,1.5615,1.582,1.5822,1.5824,0,0,0,0,0,0,1.5237,1.5254,1.5395,1.5333,1.5351,1.5392,1.5429,1.5435,1.546,1.5505,1.5512,1.5472,1.5551,1.5564,1.5634,1.5665,1.5614,1.562,1.5817,1.582,1.5823,1.5838,0,0,0,0,0,0,1.5232,1.5252,1.528,1.5334,1.5354,1.5454,1.5431,1.5438,1.547,1.5469,1.5524,1.5531,1.555,1.5625,1.5639,1.5672,1.5624,1.5815,1.5819,1.5822,1.5835,1.5842,1.5847,0,0,0,0,0,1.5225,1.528,1.5281,1.5298,1.539,1.5456,1.5468,1.5489,1.5472,1.55,1.5529,1.5529,1.5659,1.5632,1.5648,1.5683,1.5813,1.5818,1.5822,1.5833,1.584,1.5847,0,0,0,0,0,0,1.523,1.5288,1.5289,1.5364,1.5405,1.5457,1.5493,1.5496,1.5543,1.554,1.5564,1.5577,1.5645,1.5671,1.564,1.5756,1.5734,1.5742,1.5737,1.5744,1.575,1.5742,1.5629,0,0,0,0,0,1.5239,1.5288,1.5336,1.5397,1.5417,1.5452,1.5481,1.5494,1.5537,1.5555,1.5589,1.5632,1.5682,1.5715,1.5764,1.584,1.5851,1.5872,1.5877,1.5882,1.5889,1.593,1.594,1.584,1.584,1.584,0,0,1.5259,1.5297,1.5326,1.5399,1.5432,1.5482,1.5466,1.552,1.5557,1.5563,1.563,1.5657,1.5706,1.5779,1.5813,1.5803,1.5919,1.5888,1.5891,1.5896,1.5936,1.5946,1.5954,1.5843,1.5842,1.5842,0,0,1.5322,1.5355,1.541,1.5443,1.5494,1.5516,1.5529,1.5581,1.5599,1.5667,1.5672,1.5717,1.5804,1.5839,1.5868,1.5944,1.5945,1.5959,1.5989,1.603,1.6038,1.6045,1.6072,1.6081,1.5966,1.5966,1.5966,0,1.534,1.5416,1.5437,1.5491,1.5522,1.553,1.5585,1.5617,1.5681,1.5703,1.5691,1.58,1.5833,1.5914,1.5933,1.5956,1.5972,1.5952,1.6035,1.6042,1.6049,1.6075,1.6085,1.5967,1.5967,1.5967,1.5967,0,1.5436,1.5488,1.5526,1.5588,1.5624,1.5678,1.5707,1.5741,1.5751,1.5775,1.5844,1.5885,1.5942,1.5962,1.5972,1.6045,1.6037,1.603,1.6008,1.606,1.6084,1.6094,1.5969,1.5968,1.5968,1.5968,0,0,1.5503,1.5576,1.5589,1.5617,1.5674,1.5715,1.577,1.5826,1.5854,1.5898,1.5945,1.6018,1.6012,1.6045,1.6059,1.6094,1.6152,1.6083,1.6084,1.6094,1.6234,1.6238,1.6249,1.6153,1.6155,1.6157,1.6229,0,1.5571,1.5668,1.5689,1.5773,1.5821,1.5829,1.5877,1.5917,1.5941,1.5986,1.6013,1.6064,1.6052,1.6072,1.6108,1.6137,1.618,1.6132,1.6196,1.6198,1.6183,1.6262,1.6267,1.6333,1.6239,1.6241,1.6242,0,1.5663,1.5709,1.5798,1.5848,1.5869,1.5911,1.5964,1.6007,1.6053,1.6068,1.6105,1.6115,1.6173,1.6149,1.6228,1.6195,1.6223,1.6241,1.6245,1.6251,1.6222,1.6269,1.6354,1.6364,1.6257,1.6256,1.6255,0,1.5703,1.5787,1.585,1.5874,1.5935,1.5964,1.5991,1.6035,1.6067,1.6114,1.6135,1.6188,1.6216,1.6257,1.6281,1.6262,1.6359,1.6337,1.6373,1.6372,1.6392,1.639,1.6482,1.6411,1.6411,1.6411,1.6411,0,1.5776,1.5829,1.5869,1.5908,1.5968,1.5992,1.6051,1.6078,1.6117,1.6162,1.6173,1.6214,1.6245,1.6291,1.6311,1.6373,1.6386,1.64,1.6404,1.6398,1.6396,1.6416,1.6412,1.6414,1.6413,1.6413,1.6412,0,1.5829,1.5858,1.5928,1.5979,1.5994,1.6036,1.608,1.6118,1.6143,1.6199,1.6214,1.6252,1.6307,1.6335,1.6404,1.6417,1.6487,1.649,1.6472,1.6473,1.6507,1.6503,1.6614,1.6629,1.6549,1.655,1.6551,0,1.5873,1.5915,1.5971,1.6001,1.6028,1.6077,1.611,1.6136,1.617,1.6225,1.6257,1.6312,1.6358,1.6445,1.6479,1.6532,1.6535,1.657,1.6543,1.6535,1.6534,1.6531,1.6535,1.6574,1.6575,1.6576,1.6576,0,1.5949,1.5961,1.6008,1.606,1.6098,1.6141,1.6183,1.6207,1.6239,1.6277,1.6333,1.6368,1.6438,1.6493,1.6548,1.6576,1.6582,1.6585,1.6596,1.6589,1.6577,1.6583,1.6484,1.6582,1.6581,1.6581,1.6581,1.658,1.5998,1.6035,1.6081,1.6132,1.6166,1.6205,1.6244,1.6273,1.632,1.6378,1.6391,1.645,1.6495,1.657,1.66,1.6647,1.6639,1.6655,1.6659,1.6662,1.6663,1.657,1.6657,1.6657,1.6657,1.6657,1.6656,0,1.6073,1.6103,1.615,1.6208,1.6249,1.6251,1.6298,1.6332,1.6383,1.6425,1.6469,1.6534,1.6587,1.6626,1.668,1.671,1.6714,1.6723,1.6721,1.6727,1.6667,1.6652,1.6719,1.6719,1.6719,1.6719,1.6719,1.6719,1.6117,1.618,1.6197,1.6277,1.6306,1.6364,1.639,1.6426,1.646,1.6531,1.6575,1.66,1.664,1.6698,1.6747,1.6757,1.6776,1.6785,1.6795,1.6738,1.6731,1.6725,1.6711,1.6789,1.6789,1.6851,1.6852,1.6852]},{"header":{"parameterUnit":"m.s-1","parameterCategory":1,"la1":30.2991,"la2":30.254,"lo1":-89.0895,"lo2":-89.0444,"dy":0.0017,"dx":0.0017,"nx":28,"ny":28,"refTime":"2025-11-17T03:00:00:Z","depth":0,"parameterNumber":3,"parameterNumberName":"V-component_of_WINDS"},"data":[0,0,0,0,0,0,0,0,0,0,0,0,0,0,0,0,0,0,0,0,0,0,0,0,0,0,0,0,0,0,0,0,0,0,0,0,0,0,0,0,0,0,0,0,0,0,0,0,0,0,0,0,0,0,0,0,0,0,0.9139,0.9139,0,0.9144,0.9144,0.9144,0.9104,0.9103,0.9102,0.9101,0.9106,0.9107,0.9109,0,0,0,0,0,0,0,0,0,0,0,0,0,0.9097,0.9098,0.9139,0.9139,0.9139,0.9144,0.9144,0.9144,0.9104,0.9103,0.9101,0.91,0.9106,0.9107,0.9109,0,0,0,0,0,0,0,0,0,0,0,0,0,0.911,0.9098,0.9139,0.912,0.9118,0.9144,0.9144,0.9144,0.9104,0.9103,0.9101,0.9099,0.9105,0.9107,0.9109,0.9153,0,0,0.9114,0.9115,0,0,0,0,0,0,0,0,0.9109,0.9111,0.9123,0.9121,0.912,0.9122,0.9131,0.9147,0.9105,0.911,0.9101,0.9099,0.9113,0.9114,0.9118,0.9154,0.9154,0.9115,0.9116,0.9116,0.9117,0,0,0,0,0,0,0,0.9108,0.9111,0.9141,0.9123,0.9121,0.9111,0.9111,0.9134,0.9121,0.9109,0.9106,0.9107,0.9112,0.9117,0.9118,0.9154,0.9114,0.9116,0.9117,0.9118,0.9225,0.9227,0,0,0,0,0,0,0.911,0.911,0.9141,0.9141,0.911,0.9113,0.9113,0.9123,0.912,0.9118,0.9109,0.9105,0.9115,0.9116,0.9118,0.917,0.9116,0.9118,0.9119,0.9223,0.9226,0.9227,0,0,0,0,0,0,0.9109,0.9113,0.9141,0.9125,0.9128,0.9116,0.9127,0.9124,0.9129,0.912,0.9117,0.9116,0.9113,0.9116,0.9145,0.917,0.9119,0.912,0.9221,0.9224,0.9227,0.9274,0,0,0,0,0,0,0.9108,0.9113,0.913,0.9126,0.9129,0.9167,0.9128,0.9125,0.9132,0.9128,0.9126,0.9125,0.9112,0.9142,0.9147,0.9171,0.9122,0.9219,0.9223,0.9226,0.927,0.9278,0.9285,0,0,0,0,0,0.9106,0.9143,0.9131,0.9135,0.915,0.9169,0.9171,0.9155,0.9134,0.9151,0.9145,0.9125,0.9166,0.9146,0.915,0.9176,0.9217,0.9222,0.9225,0.9267,0.9276,0.9284,0,0,0,0,0,0,0.9151,0.9142,0.9128,0.9165,0.9168,0.9162,0.9183,0.9166,0.9175,0.9171,0.9151,0.9152,0.9184,0.9182,0.916,0.9218,0.9188,0.9193,0.9218,0.9227,0.9234,0.9234,0.9123,0,0,0,0,0,0.9165,0.9181,0.9173,0.9205,0.9208,0.9195,0.9203,0.9191,0.9193,0.9194,0.919,0.9194,0.9207,0.9217,0.9229,0.9269,0.9269,0.9289,0.9296,0.9302,0.9307,0.9328,0.9337,0.9241,0.9241,0.9241,0,0,0.9194,0.9191,0.9203,0.9214,0.9215,0.9232,0.9196,0.9216,0.9229,0.9197,0.9224,0.9222,0.9224,0.9259,0.9274,0.9259,0.9333,0.9307,0.9312,0.9314,0.9333,0.9342,0.935,0.9243,0.9243,0.9242,0,0,0.9256,0.9256,0.9283,0.9284,0.9286,0.9277,0.9283,0.928,0.9277,0.9303,0.928,0.9294,0.9319,0.9321,0.9326,0.9387,0.9369,0.9392,0.943,0.9451,0.9458,0.9465,0.9487,0.9495,0.9397,0.9397,0.9397,0,0.9292,0.9317,0.9299,0.932,0.9326,0.9297,0.9325,0.9327,0.9333,0.9337,0.932,0.9349,0.9349,0.9383,0.9398,0.9403,0.941,0.9392,0.9458,0.9465,0.9471,0.9492,0.95,0.9399,0.9399,0.9399,0.9399,0,0.9362,0.9379,0.9401,0.9407,0.9415,0.9439,0.9424,0.9435,0.9421,0.9414,0.9442,0.944,0.9451,0.9458,0.9446,0.9491,0.9482,0.9462,0.9431,0.9483,0.9503,0.951,0.9403,0.9402,0.9402,0.9401,0,0,0.9453,0.9447,0.9456,0.9458,0.9457,0.947,0.9493,0.9503,0.9512,0.9517,0.9535,0.9556,0.9537,0.9542,0.9529,0.9547,0.9597,0.9525,0.9525,0.9539,0.9647,0.9662,0.9672,0.9584,0.9586,0.9587,0.9647,0,0.9514,0.9552,0.9536,0.9576,0.9592,0.9564,0.9584,0.9586,0.9579,0.9592,0.9585,0.96,0.9574,0.9577,0.9593,0.9587,0.9618,0.9583,0.9602,0.9603,0.9603,0.9682,0.9698,0.9755,0.9654,0.9655,0.9656,0,0.959,0.9597,0.9638,0.9634,0.964,0.9658,0.9666,0.9678,0.9679,0.9673,0.9679,0.9662,0.9684,0.9653,0.9683,0.9659,0.9666,0.9664,0.9665,0.9667,0.9633,0.9686,0.9773,0.9782,0.9668,0.9667,0.9666,0,0.9653,0.9672,0.97,0.9702,0.9698,0.9711,0.971,0.9709,0.9716,0.9723,0.9727,0.9736,0.9742,0.975,0.9736,0.9714,0.9768,0.9735,0.9764,0.9764,0.9777,0.9777,0.9866,0.978,0.978,0.978,0.978,0,0.9722,0.9749,0.9728,0.9745,0.9773,0.9754,0.9783,0.9779,0.9779,0.9794,0.9771,0.9786,0.9766,0.9779,0.9769,0.9795,0.9798,0.9794,0.9791,0.9796,0.9797,0.9801,0.9797,0.9782,0.9782,0.9781,0.9781,0,0.9798,0.9785,0.9813,0.9805,0.9804,0.9826,0.982,0.9835,0.9827,0.9847,0.9851,0.9838,0.9852,0.9839,0.9852,0.9845,0.9881,0.9871,0.988,0.9878,0.9907,0.9905,1.0003,1.0015,0.9921,0.9922,0.9923,0,0.9844,0.9863,0.9858,0.9867,0.9867,0.9881,0.9887,0.9869,0.9877,0.9879,0.9894,0.9907,0.9915,0.994,0.9932,0.9942,0.9933,0.9967,0.9935,0.994,0.9934,0.9934,0.9936,0.9974,0.9975,0.9976,0.9977,0,0.9926,0.9918,0.9929,0.9937,0.9946,0.9951,0.9955,0.9964,0.9944,0.9955,0.9969,0.9976,0.9989,1.0002,1.0009,1.0008,0.999,0.9987,0.9994,1.0,1.0005,1.0003,0.9899,0.9985,0.9984,0.9983,0.9983,0.9983,0.9989,1.0005,1.0003,1.0016,1.0016,1.002,1.0034,1.0027,1.0038,1.0048,1.0036,1.0054,1.0053,1.0062,1.0062,1.0076,1.0062,1.0072,1.0075,1.0078,1.0082,1.0002,1.0077,1.0077,1.0077,1.0076,1.0076,0,1.007,1.0068,1.0079,1.0085,1.0095,1.0075,1.0078,1.0088,1.0103,1.0104,1.0113,1.0129,1.0141,1.0134,1.0144,1.0156,1.0148,1.0159,1.0158,1.0159,1.0094,1.0087,1.0166,1.0166,1.0166,1.0166,1.0166,1.0166,1.0114,1.014,1.0132,1.0158,1.0155,1.0172,1.0175,1.0179,1.018,1.0198,1.0208,1.0203,1.02,1.021,1.022,1.0217,1.0222,1.0237,1.0232,1.0172,1.0163,1.0155,1.0148,1.0238,1.0238,1.0295,1.0295,1.0296]}]]